Location: Fauquembergues
(50.6005°N, 2.0987°E)
Time: 10:07:58
(UTC+00:00)

Cosmos 1703 Rocket - Pass Details

Date: 14 July 2020
Orbit: 605 x 633 km, 82.5° (Epoch: 05 August)

Event Time Altitude Azimuth Distance (km) Brightness Sun altitude
Rises 00:28:36 0° 354° (N) 2,938 8.6 -17.4°
Reaches altitude 10° 00:30:57 10° 1° (N) 2,022 7.5 -17.4°
Maximum altitude 00:35:14 44° 74° (ENE) 878 4.5 -17.3°
Enters shadow 00:38:05 19° 138° (SE) 1,490 5.2 -17.2°
